EW8567 Weather Reports


Display with metric or nautical units.
time (UTC)temp
F
wind
direction
speed
MPH
gust
MPH
rain 1hr
in
rain 24hr
in
rain mn
in
humidity
%
barometer
mb
20180722110009 69 55 7.0 15.0 0.00 0.00 0.00 38 1019.3
20180722105507 69 56 8.0 17.0 0.00 0.00 0.00 37 1019.3
20180722105009 69 58 9.0 17.0 0.00 0.00 0.00 37 1019.2
20180722104509 68 35 11.0 21.0 0.00 0.00 0.00 38 1019.2
20180722104009 69 29 11.0 21.0 0.00 0.00 0.00 37 1019.1
20180722103506 69 30 9.0 17.0 0.00 0.00 0.00 39 1019.2
20180722103009 69 24 9.0 17.0 0.00 0.00 0.00 39 1019.3
20180722102505 69 31 7.0 16.0 0.00 0.00 0.00 40 1019.2
20180722102009 68 30 8.0 17.0 0.00 0.00 0.00 40 1019.2
20180722101506 68 20 9.0 17.0 0.00 0.00 0.00 38 1019.2
20180722101009 68 19 9.0 16.0 0.00 0.00 0.00 38 1019.3
20180722100505 69 28 9.0 16.0 0.00 0.00 0.00 38 1019.3
20180722100008 69 30 8.0 16.0 0.00 0.00 0.00 38 1019.4
20180722095506 69 16 7.0 14.0 0.00 0.00 0.00 39 1019.4
20180722095009 69 25 7.0 15.0 0.00 0.00 0.00 39 1019.4
20180722094506 68 34 7.0 15.0 0.00 0.00 0.00 40 1019.3
20180722094009 68 32 9.0 21.0 0.00 0.00 0.00 39 1019.4
20180722093506 68 31 10.0 21.0 0.00 0.00 0.00 37 1019.4
20180722093010 68 28 10.0 16.0 0.00 0.00 0.00 37 1019.3
20180722092506 68 29 10.0 17.0 0.00 0.00 0.00 39 1019.4
20180722092009 68 35 9.0 20.0 0.00 0.00 0.00 39 1019.4
20180722091505 68 40 10.0 20.0 0.00 0.00 0.00 38 1019.4
20180722091010 68 39 9.0 17.0 0.00 0.00 0.00 37 1019.4
20180722090506 67 41 9.0 17.0 0.00 0.00 0.00 38 1019.3
20180722090009 67 42 11.0 17.0 0.00 0.00 0.00 38 1019.3
20180722085506 67 31 10.0 17.0 0.00 0.00 0.00 39 1019.3
20180722085010 67 27 10.0 17.0 0.00 0.00 0.00 37 1019.4
20180722084506 67 35 10.0 17.0 0.00 0.00 0.00 39 1019.6
20180722084009 67 38 11.0 21.0 0.00 0.00 0.00 38 1019.5
20180722083505 67 59 11.0 21.0 0.00 0.00 0.00 37 1019.6
20180722083010 67 61 10.0 21.0 0.00 0.00 0.00 38 1019.7
20180722082506 67 51 9.0 19.0 0.00 0.00 0.00 38 1019.5
20180722082011 67 53 9.0 17.0 0.00 0.00 0.00 39 1019.7
20180722081506 67 47 10.0 17.0 0.00 0.00 0.00 38 1019.7
20180722081009 67 39 9.0 17.0 0.00 0.00 0.00 38 1019.8
20180722080507 67 49 8.0 14.0 0.00 0.00 0.00 38 1019.7
20180722080010 67 58 9.0 17.0 0.00 0.00 0.00 38 1019.8
20180722075507 67 49 10.0 17.0 0.00 0.00 0.00 37 1019.7
20180722075010 67 49 10.0 17.0 0.00 0.00 0.00 38 1019.8
20180722074505 67 48 10.0 17.0 0.00 0.00 0.00 38 1019.8
20180722074008 66 51 10.0 18.0 0.00 0.00 0.00 38 1019.8
20180722073506 66 63 10.0 18.0 0.00 0.00 0.00 38 1019.8
20180722073009 66 73 10.0 17.0 0.00 0.00 0.00 38 1019.9
20180722072506 66 68 9.0 16.0 0.00 0.00 0.00 37 1020.0
20180722072010 66 51 9.0 16.0 0.00 0.00 0.00 38 1020.1
20180722071506 66 46 10.0 23.0 0.00 0.00 0.00 38 1020.0
20180722071009 66 53 11.0 23.0 0.00 0.00 0.00 37 1020.0
20180722070505 65 54 10.0 25.0 0.00 0.00 0.00 39 1020.2
20180722070010 65 63 10.0 25.0 0.00 0.00 0.00 40 1020.1
20180722065505 65 70 10.0 25.0 0.00 0.00 0.00 41 1020.2
20180722065009 64 55 10.0 18.0 0.00 0.00 0.00 40 1020.3
20180722064506 64 68 11.0 19.0 0.00 0.00 0.00 40 1020.4
20180722064008 64 75 12.0 19.0 0.00 0.00 0.00 38 1020.2
20180722063505 65 59 11.0 21.0 0.00 0.00 0.00 39 1020.2
20180722063009 65 54 11.0 21.0 0.00 0.00 0.00 39 1020.2
20180722062506 64 71 11.0 17.0 0.00 0.00 0.00 40 1020.3
20180722062009 64 73 10.0 17.0 0.00 0.00 0.00 39 1020.3
20180722061506 64 59 11.0 19.0 0.00 0.00 0.00 39 1020.4
20180722061010 64 61 11.0 19.0 0.00 0.00 0.00 39 1020.4
20180722060506 64 63 11.0 19.0 0.00 0.00 0.00 39 1020.4
20180722060009 64 47 12.0 22.0 0.00 0.00 0.00 40 1020.5
20180722055506 64 45 11.0 22.0 0.00 0.00 0.00 40 1020.5
20180722055009 64 54 9.0 15.0 0.00 0.00 0.00 42 1020.5
20180722054505 64 53 8.0 14.0 0.00 0.00 0.00 43 1020.5
20180722054009 63 50 10.0 21.0 0.00 0.00 0.00 43 1020.6
20180722053505 63 53 11.0 21.0 0.00 0.00 0.00 42 1020.6
20180722053009 63 67 11.0 19.0 0.00 0.00 0.00 42 1020.5
20180722052506 63 67 12.0 20.0 0.00 0.00 0.00 41 1020.5
20180722052009 63 60 12.0 20.0 0.00 0.00 0.00 41 1020.4
20180722051506 63 48 11.0 20.0 0.00 0.00 0.00 42 1020.4
20180722051010 63 47 9.0 20.0 0.00 0.00 0.00 44 1020.6
20180722050505 62 63 9.0 16.0 0.00 0.00 0.00 45 1020.5
20180722050008 62 66 12.0 21.0 0.00 0.00 0.00 44 1020.5
20180722045506 62 69 13.0 21.0 0.00 0.00 0.00 44 1020.5
20180722045009 62 59 12.0 26.0 0.00 0.00 0.00 44 1020.5
20180722044506 62 59 11.0 26.0 0.00 0.00 0.00 45 1020.4
20180722044009 62 65 11.0 17.0 0.00 0.00 0.00 47 1020.4
20180722043505 62 56 10.0 17.0 0.00 0.00 0.00 49 1020.4
20180722043009 62 57 10.0 21.0 0.00 0.00 0.00 49 1020.4
20180722042506 62 57 10.0 21.0 0.00 0.00 0.00 50 1020.5
20180722042009 61 59 9.0 17.0 0.00 0.00 0.00 52 1020.4
20180722041506 61 71 10.0 22.0 0.00 0.00 0.00 51 1020.2
20180722041009 61 70 10.0 22.0 0.00 0.00 0.00 51 1020.4
20180722040506 61 55 9.0 19.0 0.00 0.00 0.00 53 1020.4
20180722040009 61 47 8.0 19.0 0.00 0.00 0.00 55 1020.3
20180722035506 60 48 7.0 15.0 0.00 0.00 0.00 58 1020.4
20180722035009 60 68 6.0 15.0 0.00 0.00 0.00 58 1020.3
20180722034506 60 67 7.0 12.0 0.00 0.00 0.00 60 1020.2
20180722034009 59 60 7.0 12.0 0.00 0.00 0.00 60 1020.2
20180722033506 59 70 8.0 14.0 0.00 0.00 0.00 60 1020.3
20180722033010 59 65 8.0 14.0 0.00 0.00 0.00 60 1020.3
20180722032505 59 73 7.0 14.0 0.00 0.00 0.00 61 1020.1
20180722032009 59 80 7.0 14.0 0.00 0.00 0.00 62 1020.1
20180722031506 59 65 5.0 11.0 0.00 0.00 0.00 63 1020.1
20180722031009 59 65 6.0 11.0 0.00 0.00 0.00 66 1020.0
20180722030506 58 59 7.0 11.0 0.00 0.00 0.00 67 1020.1
20180722030009 58 45 6.0 11.0 0.00 0.00 0.00 68 1019.9
20180722025506 58 41 5.0 11.0 0.00 0.00 0.00 69 1020.0
20180722025008 57 38 6.0 13.0 0.00 0.00 0.00 70 1020.0
20180722024506 57 47 6.0 13.0 0.00 0.00 0.00 71 1020.1
20180722024009 57 63 5.0 10.0 0.00 0.00 0.00 71 1020.1
20180722023506 56 56 4.0 9.0 0.00 0.00 0.00 74 1020.0
20180722023009 56 54 4.0 8.0 0.00 0.00 0.00 75 1020.0
20180722022506 56 59 4.0 8.0 0.00 0.00 0.00 76 1019.8
20180722022009 55 59 5.0 10.0 0.00 0.00 0.00 76 1019.9
20180722021506 55 60 5.0 10.0 0.00 0.00 0.00 78 1019.9
20180722021009 54 55 5.0 9.0 0.00 0.00 0.00 79 1020.0
20180722020506 54 52 6.0 10.0 0.00 0.00 0.00 80 1019.8
20180722020011 54 52 6.0 11.0 0.00 0.00 0.00 81 1019.8
20180722015505 54 51 5.0 11.0 0.00 0.00 0.00 82 1019.9
20180722015010 53 52 5.0 11.0 0.00 0.00 0.00 84 1019.8
20180722014507 53 62 4.0 9.0 0.00 0.00 0.00 87 1019.9
20180722014009 52 59 4.0 7.0 0.00 0.00 0.00 89 1019.8
20180722013505 52 60 4.0 7.0 0.00 0.00 0.00 89 1019.7
20180722013009 52 65 4.0 7.0 0.00 0.00 0.00 90 1019.7
20180722012506 51 68 4.0 8.0 0.00 0.00 0.00 92 1019.7
20180722012009 51 70 4.0 8.0 0.00 0.00 0.00 93 1019.8
20180722011506 50 64 3.0 7.0 0.00 0.00 0.00 94 1019.7
20180722011010 49 54 3.0 8.0 0.00 0.00 0.00 95 1019.6
20180722010507 48 60 2.0 8.0 0.00 0.00 0.00 94 1019.6
20180722010009 47 95 1.0 4.0 0.00 0.00 0.00 94 1019.7
20180722005506 47 46 0.0 2.0 0.00 0.00 0.00 94 1019.6
20180722005009 46 0 0.0 0.0 0.00 0.00 0.00 93 1019.6
20180722004506 46 0 0.0 0.0 0.00 0.00 0.00 93 1019.6
20180722004009 46 0 0.0 0.0 0.00 0.00 0.00 93 1019.5
20180722003506 46 0 0.0 0.0 0.00 0.00 0.00 92 1019.5
20180722003009 46 0 0.0 0.0 0.00 0.00 0.00 92 1019.6
20180722002506 46 0 0.0 0.0 0.00 0.00 0.00 92 1019.6
20180722002009 46 0 0.0 0.0 0.00 0.00 0.00 91 1019.6
20180722001507 46 0 0.0 0.0 0.00 0.00 0.00 91 1019.5
20180722001008 46 289 0.0 2.0 0.00 0.00 0.00 91 1019.5
20180722000506 46 236 0.0 2.0 0.00 0.00 0.00 92 1019.4
20180722000009 47 99 0.0 3.0 0.00 0.00 0.00 92 1019.5
20180721235506 47 87 1.0 4.0 0.00 0.00 0.00 92 1019.4
20180721235009 47 87 1.0 4.0 0.00 0.00 0.00 91 1019.4
20180721234506 46 74 1.0 4.0 0.00 0.01 0.00 90 1019.3
20180721234009 46 58 0.0 2.0 0.00 0.01 0.00 89 1019.2
20180721233507 46 72 0.0 2.0 0.00 0.01 0.00 89 1019.3
20180721233009 47 0 0.0 0.0 0.00 0.01 0.00 89 1019.3
20180721232506 47 0 0.0 0.0 0.00 0.01 0.00 89 1019.2
20180721232009 47 0 0.0 0.0 0.00 0.01 0.00 89 1019.0
20180721231506 47 0 0.0 0.0 0.00 0.01 0.00 88 1019.1
20180721231010 48 0 0.0 0.0 0.00 0.01 0.00 87 1019.1
20180721230506 48 0 0.0 0.0 0.00 0.01 0.00 87 1019.1
20180721230009 48 249 0.0 2.0 0.00 0.01 0.00 86 1019.1
20180721225506 48 274 0.0 2.0 0.00 0.01 0.00 85 1019.1
20180721225009 49 330 0.0 2.0 0.00 0.01 0.00 84 1019.0
20180721224506 49 1 0.0 2.0 0.00 0.01 0.00 84 1019.0
20180721224010 49 209 0.0 2.0 0.00 0.01 0.00 84 1019.1
20180721223506 50 351 0.0 4.0 0.00 0.01 0.00 83 1018.8
20180721223009 50 11 1.0 4.0 0.00 0.01 0.00 82 1018.9
20180721222505 50 122 0.0 2.0 0.00 0.01 0.00 82 1018.9
20180721222009 51 47 1.0 4.0 0.00 0.01 0.00 82 1018.7
20180721221505 51 49 2.0 5.0 0.00 0.01 0.00 82 1018.7
20180721221009 51 56 1.0 5.0 0.00 0.01 0.00 80 1018.7
20180721220506 52 44 1.0 4.0 0.00 0.01 0.00 79 1018.6
20180721220009 52 44 2.0 5.0 0.00 0.01 0.00 79 1018.6
20180721215506 52 43 1.0 5.0 0.00 0.01 0.00 78 1018.7
20180721215009 53 37 1.0 4.0 0.00 0.01 0.00 77 1018.7
20180721214506 53 43 2.0 7.0 0.00 0.01 0.00 76 1018.7
20180721214009 53 44 2.0 7.0 0.00 0.01 0.00 75 1018.6
20180721213506 53 48 2.0 6.0 0.00 0.01 0.00 75 1018.6
20180721213009 54 52 3.0 8.0 0.00 0.01 0.00 75 1018.7
20180721212505 54 50 3.0 8.0 0.00 0.01 0.00 75 1018.5
20180721212010 54 55 3.0 8.0 0.00 0.01 0.00 75 1018.6
20180721211506 54 56 3.0 8.0 0.00 0.01 0.00 74 1018.7
20180721211008 54 56 4.0 9.0 0.00 0.01 0.00 74 1018.5
20180721210506 54 54 4.0 9.0 0.00 0.01 0.00 74 1018.6
20180721210009 54 46 4.0 10.0 0.00 0.01 0.00 74 1018.5
20180721205506 54 49 5.0 10.0 0.00 0.01 0.00 74 1018.5
20180721205010 54 40 4.0 10.0 0.00 0.01 0.00 75 1018.5
20180721204506 54 40 4.0 8.0 0.00 0.01 0.00 75 1018.4
20180721204011 54 56 4.0 8.0 0.00 0.01 0.00 75 1018.5
20180721203507 54 56 4.0 8.0 0.00 0.01 0.00 76 1018.5
20180721203009 54 46 4.0 8.0 0.00 0.01 0.00 77 1018.5
20180721202505 54 35 4.0 8.0 0.00 0.01 0.00 78 1018.5
20180721202008 54 42 4.0 10.0 0.00 0.01 0.00 78 1018.6
20180721201506 53 52 5.0 10.0 0.00 0.01 0.00 79 1018.5
20180721201009 53 55 5.0 10.0 0.00 0.01 0.00 81 1018.5
20180721200506 53 53 4.0 9.0 0.00 0.01 0.00 81 1018.6
20180721200009 52 63 3.0 6.0 0.00 0.01 0.00 82 1018.6
20180721195506 52 71 3.0 5.0 0.00 0.01 0.00 82 1018.5
20180721195009 51 62 2.0 5.0 0.00 0.01 0.00 82 1018.6
20180721194506 51 82 1.0 5.0 0.00 0.01 0.00 82 1018.6
20180721194008 52 136 0.0 3.0 0.00 0.01 0.00 82 1018.6
20180721193506 52 19 0.0 2.0 0.00 0.01 0.00 82 1018.6
20180721193010 52 75 0.0 2.0 0.00 0.01 0.00 81 1018.5
20180721192506 52 100 0.0 2.0 0.00 0.01 0.00 81 1018.4
20180721192009 53 77 1.0 4.0 0.00 0.01 0.00 81 1018.5
20180721191506 52 70 2.0 4.0 0.00 0.01 0.00 81 1018.6
20180721191010 52 62 1.0 4.0 0.00 0.01 0.00 81 1018.6
20180721190506 52 69 1.0 4.0 0.00 0.01 0.00 81 1018.4
20180721190012 52 80 1.0 4.0 0.00 0.01 0.00 80 1018.6
20180721185506 53 117 0.0 4.0 0.00 0.01 0.01 80 1018.6
20180721185009 53 231 0.0 2.0 0.00 0.01 0.01 80 1018.6
20180721184506 53 1 0.0 2.0 0.00 0.01 0.01 78 1018.6
20180721184009 54 1 0.0 2.0 0.00 0.01 0.01 77 1018.6
20180721183505 54 175 0.0 2.0 0.00 0.01 0.01 76 1018.5
20180721183010 54 175 0.0 2.0 0.00 0.01 0.01 75 1018.5
20180721182506 55 0 0.0 0.0 0.00 0.01 0.01 73 1018.5
20180721182009 55 0 0.0 0.0 0.00 0.01 0.01 73 1018.5
20180721181507 56 0 0.0 0.0 0.00 0.01 0.01 72 1018.5
20180721181010 56 0 0.0 0.0 0.00 0.01 0.01 72 1018.5
20180721180507 56 0 0.0 0.0 0.00 0.01 0.01 71 1018.4
20180721180008 57 0 0.0 0.0 0.00 0.01 0.01 69 1018.5
20180721175506 58 129 0.0 3.0 0.00 0.01 0.01 68 1018.4
20180721175009 58 79 1.0 3.0 0.00 0.01 0.01 67 1018.3
20180721174506 58 57 1.0 4.0 0.00 0.01 0.01 64 1018.4
20180721174009 59 55 1.0 4.0 0.00 0.01 0.01 64 1018.4
20180721173506 59 49 2.0 4.0 0.00 0.01 0.01 63 1018.3
20180721173009 59 52 2.0 4.0 0.00 0.01 0.01 63 1018.3
20180721172506 59 51 3.0 5.0 0.00 0.01 0.01 62 1018.4
20180721172009 59 52 3.0 7.0 0.00 0.01 0.01 62 1018.2
20180721171506 59 57 4.0 8.0 0.00 0.01 0.01 62 1018.3
20180721171009 60 53 4.0 8.0 0.00 0.01 0.01 62 1018.4
20180721170505 60 57 3.0 8.0 0.00 0.01 0.01 62 1018.2
20180721170009 60 63 3.0 7.0 0.00 0.01 0.01 61 1018.4
20180721165506 60 45 3.0 8.0 0.00 0.01 0.01 61 1018.4
20180721165009 60 43 3.0 8.0 0.00 0.01 0.01 59 1018.2
20180721164506 60 50 3.0 7.0 0.00 0.01 0.01 59 1018.3
20180721164008 61 57 3.0 7.0 0.00 0.01 0.01 59 1018.2
20180721163505 61 71 3.0 8.0 0.00 0.01 0.01 58 1018.2
20180721163010 61 62 4.0 8.0 0.00 0.01 0.01 57 1018.2
20180721162507 62 48 4.0 8.0 0.00 0.01 0.01 57 1018.1
20180721162009 62 48 5.0 8.0 0.00 0.01 0.01 56 1018.1
20180721161506 62 52 5.0 9.0 0.00 0.01 0.01 55 1017.9
20180721161009 62 46 5.0 10.0 0.00 0.01 0.01 54 1017.9
20180721160506 63 46 5.0 12.0 0.00 0.01 0.01 54 1017.8
20180721160009 63 68 5.0 12.0 0.00 0.01 0.01 53 1017.8
20180721155506 63 68 5.0 11.0 0.00 0.01 0.01 53 1017.7
20180721155009 63 61 6.0 11.0 0.00 0.01 0.01 52 1017.7
20180721154507 64 62 7.0 11.0 0.00 0.01 0.01 52 1017.6
20180721154009 64 53 7.0 12.0 0.00 0.01 0.01 52 1017.6
20180721153506 64 52 6.0 14.0 0.00 0.01 0.01 52 1017.6
20180721153009 65 56 6.0 14.0 0.00 0.01 0.01 52 1017.5
20180721152506 65 63 6.0 14.0 0.00 0.01 0.01 51 1017.4
20180721152009 65 59 6.0 11.0 0.00 0.01 0.01 50 1017.4
20180721151506 65 48 8.0 17.0 0.00 0.01 0.01 50 1017.4
20180721151009 65 60 7.0 17.0 0.00 0.01 0.01 50 1017.3
20180721150506 65 76 7.0 15.0 0.00 0.01 0.01 50 1017.4
20180721150009 66 76 9.0 15.0 0.00 0.01 0.01 48 1017.4
20180721145507 66 71 9.0 14.0 0.00 0.01 0.01 47 1017.3
20180721145009 67 75 11.0 20.0 0.00 0.01 0.01 47 1017.2
20180721144506 67 67 12.0 21.0 0.00 0.01 0.01 46 1017.2
20180721144009 67 53 10.0 21.0 0.00 0.01 0.01 45 1017.2
20180721143506 67 46 7.0 12.0 0.00 0.01 0.01 48 1017.3
20180721143009 67 54 6.0 12.0 0.00 0.01 0.01 48 1017.2
20180721142505 67 74 5.0 11.0 0.00 0.01 0.01 48 1017.2
20180721142010 67 67 7.0 13.0 0.00 0.01 0.01 47 1017.3
20180721141506 67 58 9.0 16.0 0.00 0.01 0.01 46 1017.2
20180721141009 68 49 10.0 23.0 0.00 0.01 0.01 45 1017.2
20180721140507 68 48 11.0 23.0 0.00 0.01 0.01 44 1017.2
20180721140009 68 56 10.0 23.0 0.00 0.01 0.01 45 1017.1
20180721135506 68 51 8.0 15.0 0.00 0.01 0.01 45 1017.1
20180721135009 68 44 8.0 17.0 0.00 0.01 0.01 45 1017.2
20180721134506 69 44 8.0 17.0 0.00 0.01 0.01 45 1017.2
20180721134009 69 38 8.0 17.0 0.00 0.01 0.01 45 1017.2
20180721133506 69 34 8.0 17.0 0.00 0.01 0.01 44 1017.1
20180721133009 69 44 8.0 15.0 0.00 0.01 0.01 44 1017.2
20180721132506 69 49 9.0 15.0 0.00 0.01 0.01 44 1017.2
20180721132009 69 45 11.0 25.0 0.00 0.01 0.01 43 1017.2
20180721131505 70 47 11.0 25.0 0.00 0.01 0.01 43 1017.2
20180721131009 69 56 10.0 25.0 0.00 0.01 0.01 43 1017.2
20180721130505 69 50 11.0 17.0 0.00 0.01 0.01 43 1017.0
20180721130009 69 38 10.0 21.0 0.00 0.01 0.01 43 1017.0
20180721125506 70 41 8.0 21.0 0.00 0.01 0.01 43 1017.1
20180721125009 69 48 9.0 19.0 0.00 0.01 0.01 45 1017.1
20180721124506 69 47 11.0 21.0 0.00 0.01 0.01 43 1017.2
20180721124010 70 43 11.0 21.0 0.00 0.01 0.01 43 1017.1
20180721123506 70 51 12.0 21.0 0.00 0.01 0.01 44 1017.1
20180721123010 70 52 12.0 21.0 0.00 0.01 0.01 44 1017.2
20180721122506 70 43 10.0 20.0 0.00 0.01 0.01 46 1017.0
20180721122011 70 40 9.0 20.0 0.00 0.01 0.01 46 1017.1
20180721121506 70 43 10.0 19.0 0.00 0.01 0.01 45 1017.1
20180721121010 70 43 11.0 19.0 0.00 0.01 0.01 44 1017.2
20180721120505 70 46 10.0 19.0 0.00 0.01 0.01 46 1017.0
20180721120009 69 55 9.0 18.0 0.00 0.01 0.01 47 1017.1
20180721115506 69 62 9.0 18.0 0.00 0.01 0.01 46 1017.0
20180721115010 70 68 10.0 21.0 0.00 0.01 0.01 46 1017.1
20180721114506 70 61 11.0 21.0 0.00 0.01 0.01 45 1017.1
20180721114010 70 48 11.0 21.0 0.00 0.01 0.01 45 1017.1
20180721113506 71 49 12.0 23.0 0.00 0.01 0.01 45 1017.2
20180721113009 70 48 11.0 23.0 0.00 0.01 0.01 46 1017.0
20180721112506 70 49 11.0 21.0 0.00 0.01 0.01 47 1017.0
20180721112009 69 47 12.0 21.0 0.00 0.01 0.01 46 1017.0
20180721111506 70 33 12.0 21.0 0.00 0.01 0.01 45 1016.9
20180721111009 70 35 11.0 21.0 0.00 0.01 0.01 45 1016.9
20180721110505 70 37 10.0 21.0 0.00 0.01 0.01 46 1016.9